This is the latest recevied weather packets stored in our database for station/object KQ4UWH. If no packets are shown the sender has not sent any weather packets the latest 10 day(s).
| Time | Temp. | Humidity | Pressure | Rain* | Wind** | Luminosity | Snow |
|---|---|---|---|---|---|---|---|
| 1777750856 | 20° C | 34% | 1239.7 hPa | 0 mm | - | 648 W/m² | - |
| 1777750554 | 20° C | 36% | 1239.7 hPa | 0 mm | - | 663 W/m² | - |
| 1777750250 | 20.56° C | 33% | 1239.7 hPa | 0 mm | - | 671 W/m² | - |
| 1777749946 | 20.56° C | 33% | 1239.7 hPa | 0 mm | - | 666 W/m² | - |
| 1777749644 | 21.11° C | 36% | 1239.7 hPa | 0 mm | - | 675 W/m² | - |
| 1777749340 | 20.56° C | 39% | 1239.7 hPa | 0 mm | - | 679 W/m² | - |
| 1777749038 | 20.56° C | 40% | 1239.7 hPa | 0 mm | - | 683 W/m² | - |
| 1777748735 | 20° C | 39% | 1239.7 hPa | 0 mm | - | 690 W/m² | - |
| 1777748432 | 20° C | 40% | 1239.7 hPa | 0 mm | - | 710 W/m² | - |
| 1777748127 | 20.56° C | 40% | 1239.7 hPa | 0 mm | - | 712 W/m² | - |
| 1777747824 | 20.56° C | 40% | 1239.7 hPa | 0 mm | - | 188 W/m² | - |
| 1777747520 | 20.56° C | 42% | 1239.7 hPa | 0 mm | - | 232 W/m² | - |
| 1777747216 | 20.56° C | 38% | 1239.7 hPa | 0 mm | - | 159 W/m² | - |
| 1777746913 | 20.56° C | 40% | 1239.7 hPa | 0 mm | - | 728 W/m² | - |
| 1777746609 | 20.56° C | 42% | 1239.7 hPa | 0 mm | - | 350 W/m² | - |
| 1777746303 | 20.56° C | 42% | 1239.7 hPa | 0 mm | - | 501 W/m² | - |
| 1777746000 | 20.56° C | 41% | 1239.7 hPa | 0 mm | - | 716 W/m² | - |
| 1777745698 | 21.11° C | 41% | 1239.7 hPa | 0 mm | - | 742 W/m² | - |
| 1777745397 | 20.56° C | 43% | 1239.7 hPa | 0 mm | - | 744 W/m² | - |
| 1777745093 | 20.56° C | 42% | 1239.7 hPa | 0 mm | - | 745 W/m² | - |
| 1777744789 | 20.56° C | 43% | 1239.7 hPa | 0 mm | - | 755 W/m² | - |
| 1777744484 | 20.56° C | 46% | 1239.7 hPa | 0 mm | - | 753 W/m² | - |
| 1777744181 | 20° C | 48% | 1239.7 hPa | 0 mm | - | 755 W/m² | - |
| 1777743878 | 20° C | 47% | 1239.7 hPa | 0 mm | - | 756 W/m² | - |
| 1777743574 | 20° C | 45% | 1239.7 hPa | 0 mm | - | 496 W/m² | - |
* Rain latest hour (hover to see other rain measurements)
** Current wind speed in m/s (hover to see current wind gust speed)